TimeMST,TemperatureF,Dew PointF,Humidity,Sea Level PressureIn,VisibilityMPH,Wind Direction,Wind SpeedMPH,Gust SpeedMPH,PrecipitationIn,Events,Conditions,WindDirDegrees,DateUTC
12:57 AM,26.1,19.0,75,29.91,10.0,Calm,Calm,-,N/A,,Clear,0,2012-12-08 07:57:00
1:57 AM,25.0,19.0,78,29.91,10.0,Calm,Calm,-,N/A,,Clear,0,2012-12-08 08:57:00
2:57 AM,25.0,19.9,81,29.93,10.0,Calm,Calm,-,N/A,,Clear,0,2012-12-08 09:57:00
3:57 AM,24.1,19.0,81,29.93,10.0,SW,4.6,-,N/A,,Clear,230,2012-12-08 10:57:00
4:57 AM,27.0,21.0,78,29.92,10.0,WSW,3.5,-,N/A,,Clear,240,2012-12-08 11:57:00
5:57 AM,30.9,23.0,72,29.94,10.0,WSW,3.5,-,N/A,,Clear,250,2012-12-08 12:57:00
6:57 AM,27.0,21.0,78,30.00,10.0,WSW,4.6,-,N/A,,Clear,240,2012-12-08 13:57:00
7:57 AM,28.9,23.0,78,30.00,10.0,SW,4.6,-,N/A,,Clear,230,2012-12-08 14:57:00
8:57 AM,35.1,23.0,61,29.99,10.0,SW,4.6,-,N/A,,Clear,230,2012-12-08 15:57:00
9:57 AM,42.1,21.9,45,29.97,10.0,SSW,10.4,-,N/A,,Clear,210,2012-12-08 16:57:00
10:57 AM,48.0,8.1,20,29.94,10.0,WSW,11.5,-,N/A,,Clear,240,2012-12-08 17:57:00
11:57 AM,50.0,10.0,20,29.91,10.0,West,8.1,16.1,N/A,,Clear,270,2012-12-08 18:57:00
12:57 PM,51.1,15.1,24,29.88,10.0,WSW,11.5,19.6,N/A,,Clear,240,2012-12-08 19:57:00
1:57 PM,48.9,14.0,25,29.90,10.0,West,9.2,-,N/A,,Clear,260,2012-12-08 20:57:00
2:57 PM,48.0,14.0,26,29.89,10.0,WSW,13.8,23.0,N/A,,Clear,240,2012-12-08 21:57:00
3:57 PM,48.0,12.9,24,29.92,10.0,WSW,12.7,-,N/A,,Clear,240,2012-12-08 22:57:00
4:57 PM,46.0,12.9,26,29.91,10.0,WSW,8.1,-,N/A,,Clear,240,2012-12-08 23:57:00
5:57 PM,39.9,14.0,35,29.92,10.0,SW,8.1,-,N/A,,Clear,230,2012-12-09 00:57:00
6:57 PM,39.0,16.0,39,29.96,10.0,WSW,4.6,-,N/A,,Clear,250,2012-12-09 01:57:00
7:57 PM,37.9,19.9,48,29.97,10.0,WSW,6.9,-,N/A,,Clear,250,2012-12-09 02:57:00
8:57 PM,30.0,19.0,64,29.98,10.0,NE,3.5,-,N/A,,Clear,50,2012-12-09 03:57:00
9:57 PM,26.1,17.1,69,29.98,10.0,Calm,Calm,-,N/A,,Clear,0,2012-12-09 04:57:00
10:57 PM,24.1,16.0,71,29.96,10.0,Calm,Calm,-,N/A,,Clear,0,2012-12-09 05:57:00
11:57 PM,23.0,15.1,72,29.95,10.0,Calm,Calm,-,N/A,,Clear,0,2012-12-09 06:57:00